EW4258 Weather Reports


time (UTC)temp
F
wind
direction
speed
knots
gust
knots
rain 1hr
in
rain 24hr
in
rain mn
in
humidity
%
barometer
mb
20260507095115 60 45 3.5 8.7 0.00 0.00 0.00 41 1012.8
20260507094115 60 337 3.5 1.7 0.00 0.00 0.00 41 1013.1
20260507092115 62 292 3.5 6.1 0.00 0.00 0.00 41 1012.8
20260507090114 60 315 3.5 2.6 0.00 0.00 0.00 42 1012.9
20260507084114 61 247 3.5 7.0 0.00 0.00 0.00 42 1013.1
20260507083114 61 360 3.5 4.3 0.00 0.00 0.00 43 1013.1
20260507082115 60 315 2.6 3.5 0.00 0.00 0.00 42 1012.8
20260507081115 59 112 2.6 1.7 0.00 0.00 0.00 43 1012.8
20260507080114 59 292 2.6 3.5 0.00 0.00 0.00 43 1013.1
20260507075114 58 315 1.7 3.5 0.00 0.00 0.00 45 1013.1
20260507074114 57 292 1.7 0.9 0.00 0.00 0.00 45 1013.6
20260507073113 56 337 1.7 2.6 0.00 0.00 0.00 45 1013.6
20260507072114 56 292 1.7 3.5 0.00 0.00 0.00 46 1012.8
20260507071113 56 292 1.7 3.5 0.00 0.00 0.00 47 1012.8
20260507070113 55 360 1.7 4.3 0.00 0.00 0.00 48 1012.9
20260507065113 54 315 0.9 2.6 0.00 0.00 0.00 50 1012.9
20260507064113 54 247 0.0 0.9 0.00 0.00 0.00 52 1012.9
20260507063113 54 202 0.0 0.9 0.00 0.00 0.00 53 1012.9
20260507062114 53 180 0.0 0.0 0.00 0.00 0.00 52 1012.8
20260507060113 53 135 0.9 2.6 0.00 0.00 0.00 55 1012.6
20260507055113 53 135 0.9 2.6 0.00 0.00 0.00 54 1012.6
20260507054113 53 67 0.9 2.6 0.00 0.00 0.00 55 1012.4
20260507053113 52 157 0.9 0.0 0.00 0.00 0.00 57 1012.4
20260507052112 51 202 0.0 0.9 0.00 0.00 0.00 57 1012.5
20260507051112 51 157 0.0 1.7 0.00 0.00 0.00 57 1012.5
20260507050112 51 135 0.0 0.0 0.00 0.00 0.00 57 1012.2
20260507045112 50 112 0.0 1.7 0.00 0.00 0.00 57 1012.2
20260507044112 50 180 0.0 0.0 0.00 0.00 0.00 58 1012.1
20260507042112 50 180 0.0 0.0 0.00 0.00 0.00 58 1011.8
20260507041113 50 112 0.0 0.0 0.00 0.00 0.00 58 1011.8
20260507035112 50 112 0.9 0.9 0.00 0.00 0.00 56 1012.1
20260507034113 50 225 0.0 0.0 0.00 0.00 0.00 56 1011.7
20260507033113 50 247 0.0 0.0 0.00 0.00 0.00 57 1011.7
20260507032113 51 225 0.0 0.0 0.00 0.00 0.00 56 1011.6
20260507031113 51 202 0.0 0.9 0.00 0.00 0.00 54 1011.6
20260507030113 51 135 0.0 0.0 0.00 0.00 0.00 54 1011.5
20260507025113 52 202 0.0 0.0 0.00 0.00 0.00 54 1011.5
20260507024113 52 270 0.9 0.0 0.00 0.00 0.00 55 1011.5
20260507023113 52 202 0.0 0.0 0.00 0.00 0.00 54 1011.5
20260507021112 52 90 0.0 1.7 0.00 0.00 0.00 52 1011.4
20260507020112 52 202 0.0 0.0 0.00 0.00 0.00 52 1011.8
20260507015112 52 225 0.0 0.0 0.00 0.00 0.00 52 1011.8
20260507014112 52 202 0.0 0.0 0.00 0.00 0.00 51 1011.1
20260507013112 52 225 0.9 1.7 0.00 0.00 0.00 51 1011.1
20260507012113 52 90 0.0 0.0 0.00 0.00 0.00 51 1011.1
20260507011112 52 45 0.0 0.0 0.00 0.00 0.00 51 1011.1
20260507005112 52 292 0.9 0.9 0.00 0.00 0.00 51 1011.0
20260507003111 53 337 0.9 1.7 0.00 0.00 0.00 50 1011.0
20260507001112 53 90 0.9 0.0 0.00 0.00 0.00 49 1011.4
20260507000111 54 292 0.9 1.7 0.00 0.00 0.00 50 1010.9
20260506235111 54 292 1.7 0.9 0.00 0.00 0.00 49 1010.9
20260506234111 54 360 1.7 2.6 0.00 0.00 0.00 49 1010.9
20260506232112 54 315 1.7 5.2 0.00 0.00 0.00 49 1010.9
20260506231111 54 292 1.7 3.5 0.00 0.00 0.00 49 1010.9
20260506230111 54 292 2.6 2.6 0.00 0.00 0.00 49 1010.9
20260506225111 55 247 2.6 5.2 0.00 0.00 0.00 50 1010.9
20260506224112 55 360 3.5 3.5 0.00 0.00 0.00 50 1010.6
20260506223111 55 225 3.5 4.3 0.00 0.00 0.00 50 1010.6
20260506222111 55 337 4.3 2.6 0.00 0.00 0.00 51 1010.2
20260506221111 55 270 2.6 6.1 0.00 0.00 0.00 51 1010.2
20260506220113 56 337 4.3 7.0 0.00 0.00 0.00 51 1010.1
20260506215113 56 22 3.5 5.2 0.00 0.00 0.00 51 1010.1
20260506214113 56 292 3.5 2.6 0.00 0.00 0.00 52 1009.9
20260506213113 56 315 3.5 3.5 0.00 0.00 0.00 52 1009.9
20260506211113 57 315 2.6 7.0 0.00 0.00 0.00 51 1009.6
20260506210114 57 90 2.6 3.5 0.00 0.00 0.00 50 1009.2
20260506205113 58 247 3.5 2.6 0.00 0.00 0.00 49 1009.2
20260506204113 58 315 3.5 5.2 0.00 0.00 0.00 48 1009.2
20260506203114 58 270 2.6 3.5 0.00 0.00 0.00 46 1009.2
20260506202113 59 292 3.5 4.3 0.00 0.00 0.00 46 1009.1
20260506201112 60 247 3.5 2.6 0.00 0.00 0.00 45 1009.1
20260506200112 60 315 3.5 5.2 0.00 0.00 0.00 44 1008.8
20260506195112 60 315 3.5 6.1 0.00 0.00 0.00 43 1008.8
20260506194112 61 270 2.6 2.6 0.00 0.00 0.00 42 1008.4
20260506193112 61 337 3.5 6.1 0.00 0.00 0.00 42 1008.4
20260506191112 62 315 3.5 2.6 0.00 0.00 0.00 41 1007.9
20260506190112 63 225 4.3 5.2 0.00 0.00 0.00 39 1007.2
20260506185113 64 337 4.3 9.6 0.00 0.00 0.00 38 1007.2
20260506184112 64 337 3.5 4.3 0.00 0.00 0.00 37 1006.8
20260506183112 65 360 3.5 1.7 0.00 0.00 0.00 35 1006.8
20260506182111 66 247 3.5 5.2 0.00 0.00 0.00 33 1006.1
20260506181111 66 270 2.6 2.6 0.00 0.00 0.00 32 1006.1
20260506180111 67 315 1.7 1.7 0.00 0.00 0.00 31 1005.9
20260506175111 67 225 1.7 1.7 0.00 0.00 0.00 31 1005.9
20260506174111 67 225 2.6 3.5 0.00 0.00 0.00 31 1006.1
20260506173111 68 202 1.7 1.7 0.00 0.00 0.00 31 1006.1
20260506172111 68 157 1.7 1.7 0.00 0.00 0.00 31 1005.1
20260506171111 68 112 3.5 1.7 0.00 0.00 0.00 31 1005.1
20260506165111 69 135 2.6 1.7 0.00 0.00 0.00 32 1005.1
20260506164111 69 180 2.6 2.6 0.00 0.00 0.00 30 1004.9
20260506163110 69 90 2.6 3.5 0.00 0.00 0.00 31 1004.9
20260506162110 70 90 2.6 4.3 0.00 0.00 0.00 31 1005.6
20260506161110 70 135 2.6 2.6 0.00 0.00 0.00 31 1005.6
20260506155110 70 225 1.7 1.7 0.00 0.00 0.00 32 1004.8
20260506154110 70 157 1.7 2.6 0.00 0.00 0.00 32 1004.8
20260506153110 71 292 3.5 5.2 0.00 0.00 0.00 31 1004.8
20260506152110 71 90 4.3 5.2 0.00 0.00 0.00 31 1005.1
20260506151110 72 157 4.3 6.1 0.00 0.00 0.00 31 1005.1
20260506145110 73 90 5.2 10.4 0.00 0.00 0.00 31 1004.8
20260506144110 74 135 2.6 4.3 0.00 0.00 0.00 31 1005.3
20260506143110 74 180 1.7 2.6 0.00 0.00 0.00 32 1005.3
20260506142109 73 157 3.5 2.6 0.00 0.00 0.00 32 1005.2
20260506141110 73 67 3.5 4.3 0.00 0.00 0.00 32 1005.2
20260506140114 73 67 2.6 3.5 0.00 0.00 0.00 32 1005.5
20260506135114 73 157 3.5 4.3 0.00 0.00 0.00 32 1005.5
20260506133116 73 135 3.5 3.5 0.00 0.00 0.00 33 1006.0
20260506132114 73 67 5.2 5.2 0.00 0.00 0.00 32 1005.5
20260506131114 74 112 5.2 6.1 0.00 0.00 0.00 33 1005.5
20260506130114 74 112 5.2 8.7 0.00 0.00 0.00 32 1005.6
20260506125114 73 90 5.2 5.2 0.00 0.00 0.00 33 1005.6
20260506124114 73 180 5.2 7.8 0.00 0.00 0.00 33 1006.1
20260506123114 73 135 5.2 2.6 0.00 0.00 0.00 34 1006.1
20260506121114 73 112 4.3 7.0 0.00 0.00 0.00 34 1005.8
20260506114113 73 112 5.2 7.0 0.00 0.00 0.00 34 1006.8
20260506113114 72 157 4.3 6.1 0.00 0.00 0.00 35 1006.8
20260506112114 72 90 3.5 5.2 0.00 0.00 0.00 34 1007.0
20260506111113 71 90 1.7 4.3 0.00 0.00 0.00 36 1007.0
20260506104113 69 135 2.6 4.3 0.00 0.00 0.00 37 1007.4
20260506103113 70 225 2.6 2.6 0.00 0.00 0.00 38 1007.4
20260506102113 69 225 2.6 4.3 0.00 0.00 0.00 38 1007.4
20260506100113 68 292 1.7 2.6 0.00 0.00 0.00 40 1007.4